This is the latest recevied weather packets stored in our database for station/object W3AJR. If no packets are shown the sender has not sent any weather packets the latest 10 day(s).
| Time | Temp. | Humidity | Pressure | Rain* | Wind** | Luminosity | Snow |
|---|---|---|---|---|---|---|---|
| 1778110775 | 20.56° C | 81% | 1008 hPa | 0 mm | - | 18 W/m² | - |
| 1778110471 | 21.11° C | 81% | 1007.8 hPa | 0 mm | - | 17 W/m² | - |
| 1778110168 | 21.11° C | 80% | 1007.9 hPa | 0 mm | - | 19 W/m² | - |
| 1778109864 | 21.11° C | 80% | 1007.7 hPa | 0 mm | - | 29 W/m² | - |
| 1778109560 | 21.11° C | 79% | 1007.7 hPa | 0 mm | - | 44 W/m² | - |
| 1778109258 | 21.11° C | 79% | 1007.5 hPa | 0 mm | - | 57 W/m² | - |
| 1778108955 | 21.11° C | 79% | 1007.5 hPa | 0 mm | - | 64 W/m² | - |
| 1778108651 | 21.11° C | 79% | 1007.5 hPa | 0 mm | - | 66 W/m² | - |
| 1778108348 | 21.11° C | 78% | 1007.5 hPa | 0 mm | - | 65 W/m² | - |
| 1778108045 | 21.67° C | 78% | 1007.4 hPa | 0 mm | - | 65 W/m² | - |
| 1778107742 | 21.67° C | 78% | 1007.7 hPa | 0 mm | - | 73 W/m² | - |
| 1778107440 | 21.67° C | 78% | 1007.7 hPa | 0 mm | - | 82 W/m² | - |
| 1778107135 | 21.67° C | 77% | 1007.7 hPa | 0 mm | - | 89 W/m² | - |
| 1778106831 | 21.67° C | 77% | 1007.2 hPa | 0 mm | - | 97 W/m² | - |
| 1778106528 | 21.67° C | 77% | 1007.3 hPa | 0 mm | - | 104 W/m² | - |
| 1778106224 | 21.67° C | 77% | 1007.7 hPa | 0 mm | - | 87 W/m² | - |
| 1778105922 | 21.67° C | 76% | 1007.5 hPa | 0 mm | - | 63 W/m² | - |
| 1778105619 | 21.67° C | 77% | 1007.6 hPa | 0 mm | - | 87 W/m² | - |
| 1778105317 | 21.67° C | 76% | 1007.6 hPa | 0 mm | - | 96 W/m² | - |
| 1778105012 | 21.67° C | 76% | 1007.6 hPa | 0 mm | - | 108 W/m² | - |
| 1778104709 | 21.67° C | 76% | 1007.5 hPa | 0 mm | - | 127 W/m² | - |
| 1778104405 | 22.22° C | 75% | 1007.6 hPa | 0 mm | - | 133 W/m² | - |
| 1778104101 | 21.67° C | 76% | 1007.4 hPa | 0 mm | - | 162 W/m² | - |
| 1778103797 | 21.67° C | 77% | 1007.3 hPa | 0 mm | - | 181 W/m² | - |
| 1778103496 | 21.67° C | 77% | 1007.6 hPa | 0 mm | - | 157 W/m² | - |
* Rain latest hour (hover to see other rain measurements)
** Current wind speed in m/s (hover to see current wind gust speed)